Weather History for Superior, WI

Change the Weather History Date:

Saturday, January 25, 2014

  Actual Average Record
Temperature  
Mean Temperature 5 °F -  
Max Temperature 12 °F 21 °F 50 °F (1981)
Min Temperature -2 °F 1 °F -28 °F (1966)
Degree Days  
Heating Degree Days 60    
Moisture  
Dew Point -11 °F    
Average Humidity 55    
Maximum Humidity 66    
Minimum Humidity 42    
Precipitation  
Precipitation 0.00 in - - ()
Sea Level Pressure  
Sea Level Pressure 29.72 in    
Wind  
Wind Speed 14 mph (WNW)    
Max Wind Speed 24 mph    
Max Gust Speed 34 mph    
Visibility 10 miles    
Events      
Averages and records for this station are not official NWS values.
T = Trace of Precipitation, MM = Missing Value Source: NWS Daily Summary

Daily Weather History Graph

Daily Weather History Graph

Search for Another Location

Airport:

Trip Planner

Search our weather history database for the weather conditions in past years. The results will help you decide how hot, cold, wet, or windy it might be!

Date:

Astronomy

Jan. 25, 2014 Rise Set
Actual Time 7:40 AM CST 5:01 PM CST
Civil Twilight 7:07 AM CST 5:34 PM CST
Nautical Twilight 6:30 AM CST 6:11 PM CST
Astronomical Twilight 5:54 AM CST 6:47 PM CST
Moon 2:11 AM CST (1/25) 12:03 PM CST (1/25)
Length of Visible Light 10h 27m
Length of Day
9h 21m
Waning Crescent, 34% of the Moon is Illuminated
Jan 25
Waning Crescent
Jan 30
New
Feb 6
First Quarter
Feb 14
Full
Feb 22
Last Quarter

Hourly Weather History & Observations

Time (CST) Temp. Windchill Dew Point Humidity Pressure Visibility Wind Dir Wind Speed Gust Speed Precip Events Conditions
12:15 AM 12.7 °F -4.1 °F 3.2 °F 66% 29.53 in 10.0 mi NW 17.3 mph 26.5 mph N/A   Scattered Clouds
12:35 AM 12.0 °F -4.0 °F 2.3 °F 65% 29.54 in 10.0 mi WNW 15.0 mph 19.6 mph N/A   Mostly Cloudy
12:55 AM 10.4 °F -8.6 °F 0.7 °F 65% 29.55 in 7.0 mi NW 20.7 mph 29.9 mph N/A   Scattered Clouds
1:15 AM 8.6 °F -11.9 °F -1.3 °F 64% 29.56 in 7.0 mi NW 23.0 mph 27.6 mph N/A   Scattered Clouds
1:35 AM 7.5 °F -13.7 °F -3.1 °F 62% 29.58 in 7.0 mi NW 24.2 mph 34.5 mph N/A   Clear
1:55 AM 6.4 °F -13.8 °F -3.8 °F 63% 29.61 in 10.0 mi NW 20.7 mph 27.6 mph N/A   Scattered Clouds
2:15 AM 5.9 °F -14.1 °F -4.2 °F 63% 29.62 in 5.0 mi NW 19.6 mph 34.5 mph N/A   Haze
2:35 AM 5.0 °F -14.7 °F -5.4 °F 62% 29.62 in 10.0 mi NW 18.4 mph 26.5 mph N/A   Scattered Clouds
2:55 AM 3.9 °F -16.6 °F -6.5 °F 62% 29.62 in 10.0 mi NW 19.6 mph 33.4 mph N/A   Scattered Clouds
3:15 AM 3.2 °F -16.5 °F -7.2 °F 62% 29.63 in 10.0 mi NW 17.3 mph 26.5 mph N/A   Clear
3:35 AM 2.8 °F -20.0 °F -8.5 °F 59% 29.65 in 10.0 mi NNW 24.2 mph 28.8 mph N/A   Clear
3:55 AM 2.3 °F -19.3 °F -9.0 °F 59% 29.66 in 10.0 mi NNW 20.7 mph 27.6 mph N/A   Clear
4:15 AM 1.6 °F -18.6 °F -9.4 °F 60% 29.69 in 10.0 mi NNW 17.3 mph 20.7 mph N/A   Clear
4:35 AM 1.4 °F -16.9 °F -9.4 °F 61% 29.69 in 10.0 mi NW 13.8 mph - N/A   Clear
4:55 AM 1.0 °F -18.7 °F -9.6 °F 61% 29.70 in 10.0 mi NW 16.1 mph 20.7 mph N/A   Clear
5:15 AM 0.3 °F -17.5 °F -10.3 °F 61% 29.70 in 10.0 mi NW 12.7 mph - N/A   Clear
5:35 AM -0.0 °F -16.3 °F -10.5 °F 61% 29.71 in 10.0 mi NW 10.4 mph - N/A   Clear
5:55 AM -0.4 °F -15.7 °F -10.7 °F 62% 29.73 in 10.0 mi WNW 9.2 mph 19.6 mph N/A   Scattered Clouds
6:15 AM -0.8 °F -20.3 °F -10.8 °F 62% 29.74 in 10.0 mi NW 15.0 mph - N/A   Scattered Clouds
6:35 AM -1.3 °F -16.8 °F -11.2 °F 63% 29.75 in 10.0 mi NW 9.2 mph - N/A   Scattered Clouds
6:55 AM -1.3 °F -21.0 °F -11.2 °F 63% 29.76 in 10.0 mi NW 15.0 mph 19.6 mph N/A   Mostly Cloudy
7:15 AM -1.3 °F -18.7 °F -10.7 °F 65% 29.76 in 10.0 mi NW 11.5 mph - N/A   Overcast
7:35 AM -2.2 °F -18.9 °F -11.4 °F 65% 29.77 in 10.0 mi NW 10.4 mph - N/A   Overcast
7:55 AM -2.2 °F -22.2 °F -12.1 °F 63% 29.78 in 10.0 mi NW 15.0 mph 20.7 mph N/A   Scattered Clouds
8:15 AM -2.6 °F -21.9 °F -12.5 °F 63% 29.79 in 10.0 mi NW 13.8 mph 24.2 mph N/A   Clear
8:35 AM -2.4 °F -22.4 °F -12.6 °F 62% 29.79 in 10.0 mi NW 15.0 mph 20.7 mph N/A   Clear
8:55 AM -2.6 °F -21.9 °F -13.0 °F 61% 29.80 in 10.0 mi NW 13.8 mph 21.9 mph N/A   Clear
9:15 AM -2.2 °F -20.7 °F -13.0 °F 60% 29.80 in 10.0 mi NW 12.7 mph - N/A   Clear
9:35 AM -2.0 °F -22.6 °F -13.2 °F 59% 29.81 in 10.0 mi NNW 16.1 mph 21.9 mph N/A   Clear
9:55 AM -1.5 °F -21.3 °F -13.0 °F 58% 29.81 in 10.0 mi NNW 15.0 mph - N/A   Clear
10:15 AM -1.1 °F -18.5 °F -13.0 °F 57% 29.81 in 10.0 mi NW 11.5 mph - N/A   Clear
10:35 AM -0.4 °F -18.4 °F -13.2 °F 55% 29.82 in 10.0 mi NW 12.7 mph - N/A   Clear
10:55 AM -0.0 °F -18.0 °F -12.5 °F 56% 29.83 in 10.0 mi NW 12.7 mph - N/A   Clear
11:15 AM 0.9 °F -18.3 °F -12.1 °F 55% 29.82 in 10.0 mi NNW 15.0 mph - N/A   Clear
11:35 AM 1.4 °F -16.9 °F -12.1 °F 53% 29.81 in 10.0 mi NW 13.8 mph - N/A   Clear
11:55 AM 1.9 °F -14.7 °F -11.9 °F 52% 29.80 in 10.0 mi NW 11.5 mph 18.4 mph N/A   Clear
12:15 PM 2.7 °F -16.0 °F -11.7 °F 51% 29.80 in 10.0 mi NW 15.0 mph 24.2 mph N/A   Clear
12:35 PM 2.8 °F -18.6 °F -11.2 °F 52% 29.81 in 10.0 mi NW 20.7 mph 25.3 mph N/A   Clear
12:55 PM 3.2 °F -17.1 °F -11.4 °F 51% 29.80 in 10.0 mi NW 18.4 mph 24.2 mph N/A   Clear
1:15 PM 3.9 °F -16.1 °F -11.6 °F 49% 29.79 in 10.0 mi WNW 18.4 mph - N/A   Clear
1:35 PM 4.1 °F -13.4 °F -11.2 °F 49% 29.79 in 10.0 mi WNW 13.8 mph - N/A   Clear
1:55 PM 4.6 °F -15.2 °F -11.0 °F 48% 29.78 in 10.0 mi NW 18.4 mph 24.2 mph N/A   Clear
2:15 PM 5.0 °F -12.3 °F -11.4 °F 47% 29.77 in 10.0 mi WNW 13.8 mph 24.2 mph N/A   Clear
2:35 PM 5.4 °F -10.4 °F -11.9 °F 45% 29.77 in 10.0 mi NW 11.5 mph - N/A   Clear
2:55 PM 5.7 °F -9.9 °F -11.6 °F 45% 29.77 in 10.0 mi WNW 11.5 mph - N/A   Clear
3:15 PM 5.9 °F -11.2 °F -11.9 °F 44% 29.77 in 10.0 mi WNW 13.8 mph 18.4 mph N/A   Clear
3:35 PM 5.7 °F -10.7 °F -11.9 °F 44% 29.77 in 10.0 mi West 12.7 mph - N/A   Clear
3:55 PM 5.9 °F -9.7 °F -12.8 °F 42% 29.77 in 10.0 mi WNW 11.5 mph 19.6 mph N/A   Clear
4:15 PM 5.0 °F -11.6 °F -13.0 °F 43% 29.77 in 10.0 mi WNW 12.7 mph 17.3 mph N/A   Clear
4:35 PM 4.6 °F -12.0 °F -14.1 °F 42% 29.77 in 10.0 mi WNW 12.7 mph - N/A   Clear
4:55 PM 3.6 °F -5.7 °F -14.1 °F 44% 29.76 in 10.0 mi West 4.6 mph - N/A   Clear
5:15 PM 3.0 °F -11.5 °F -14.4 °F 44% 29.76 in 10.0 mi WNW 9.2 mph - N/A   Clear
5:35 PM 1.9 °F -11.8 °F -14.4 °F 46% 29.76 in 10.0 mi WNW 8.1 mph - N/A   Clear
5:55 PM 1.9 °F -7.6 °F -14.8 °F 46% 29.75 in 10.0 mi West 4.6 mph - N/A   Clear
6:15 PM 1.2 °F -10.1 °F -14.3 °F 48% 29.74 in 10.0 mi WSW 5.8 mph - N/A   Clear
6:35 PM 1.4 °F -8.3 °F -14.1 °F 48% 29.73 in 10.0 mi West 4.6 mph - N/A   Clear
6:55 PM 1.2 °F - -14.1 °F 49% 29.73 in 10.0 mi Calm Calm - N/A   Clear
7:15 PM 0.1 °F -9.7 °F -13.4 °F 53% 29.72 in 10.0 mi SSW 4.6 mph - N/A   Clear
7:35 PM -1.1 °F -11.2 °F -13.7 °F 55% 29.71 in 10.0 mi WSW 4.6 mph - N/A   Clear
7:55 PM 0.9 °F -8.9 °F -13.5 °F 51% 29.71 in 10.0 mi WSW 4.6 mph - N/A   Scattered Clouds
8:15 PM 1.0 °F -6.7 °F -13.4 °F 51% 29.71 in 10.0 mi SW 3.5 mph - N/A   Scattered Clouds
9:15 PM 1.8 °F -5.8 °F -12.1 °F 52% 29.66 in 10.0 mi SW 3.5 mph - N/A   Overcast
9:35 PM 1.9 °F -7.6 °F -12.8 °F 50% 29.66 in 10.0 mi WSW 4.6 mph - N/A   Overcast
9:55 PM 2.1 °F -5.4 °F -13.0 °F 49% 29.65 in 10.0 mi WSW 3.5 mph - N/A   Overcast
10:15 PM 2.1 °F -5.4 °F -11.4 °F 53% 29.64 in 10.0 mi SW 3.5 mph - N/A   Overcast
10:35 PM 2.3 °F -7.2 °F -11.6 °F 52% 29.63 in 10.0 mi WSW 4.6 mph - N/A   Overcast
10:55 PM 2.3 °F -5.2 °F -11.9 °F 52% 29.62 in 10.0 mi SW 3.5 mph - N/A   Overcast
11:15 PM 2.3 °F - -11.7 °F 52% 29.61 in 10.0 mi Calm Calm - N/A   Overcast
11:35 PM 2.3 °F - -11.7 °F 52% 29.61 in 10.0 mi Calm Calm - N/A   Overcast
11:55 PM 2.3 °F - -8.9 °F 60% 29.58 in 10.0 mi Calm Calm - N/A   Overcast